Location: Amanico Ergina Village
(37.7824°N, 122.4366°W)
Time: 20:48:26
(UTC+00:00)

Cosmos 2082 Rocket - Pass Details

Date: 29 October 2020
Orbit: 833 x 854 km, 71.0° (Epoch: 24 November)

Event Time Altitude Azimuth Distance (km) Brightness Sun altitude
Exits shadow 13:51:47 - 265° (W) 2,486 4.0 -8.7°
Reaches altitude 10° 13:51:59 10° 267° (W) 2,440 4.0 -8.6°
Maximum altitude 13:55:33 17° 307° (NW) 1,992 3.6 -8.0°
Drops below altitude 10° 13:59:08 10° 347° (NNW) 2,451 4.4 -7.3°
Sets 14:02:30 0° 7° (N) 3,392 5.3 -6.6°
